Date,TemperatureHighF,TemperatureAvgF,TemperatureLowF,DewpointHighF,DewpointAvgF,DewpointLowF,HumidityHigh,HumidityAvg,HumidityLow,PressureMaxIn,PressureMinIn,WindSpeedMaxMPH,WindSpeedAvgMPH,GustSpeedMaxMPH,PrecipitationSumIn
2012-12-1,59.7,48.4,34.7,52.0,42.4,31.0,90,80,68,30.11,29.91,18,4,23,0.00
2012-12-2,59.1,55.9,47.8,55.0,51.9,47.0,96,86,67,29.99,29.84,17,4,22,0.05
2012-12-3,65.8,59.5,48.1,61.0,57.1,47.0,99,92,79,29.99,29.79,14,5,24,0.01
2012-12-4,63.9,51.4,43.0,58.0,43.9,34.0,94,77,48,30.12,29.81,16,4,26,0.32
2012-12-5,43.2,35.3,30.3,35.0,27.7,25.0,81,74,62,30.34,30.14,7,3,14,0.32
2012-12-6,42.6,35.5,29.1,38.0,30.4,24.0,87,81,74,30.21,29.88,10,4,13,0.00
2012-12-7,45.5,43.2,41.0,43.0,41.0,38.0,97,92,84,29.90,29.78,6,1,9,0.15
2012-12-8,43.3,40.3,34.5,42.0,38.4,31.0,97,93,85,30.04,29.74,9,3,14,0.01
2012-12-9,44.3,38.6,34.1,44.0,37.0,31.0,98,94,88,30.05,29.63,14,5,18,0.10
2012-12-10,40.1,33.0,30.1,39.0,31.0,27.0,96,92,87,29.86,29.63,12,4,17,0.10
2012-12-11,33.3,30.1,28.1,29.0,24.8,22.0,93,81,66,30.13,29.87,13,5,21,0.04
2012-12-12,42.0,32.6,25.7,28.0,25.3,22.0,87,75,54,30.31,30.14,11,3,15,0.01
2012-12-13,46.2,36.9,29.8,29.0,26.9,25.0,81,68,48,30.30,30.11,15,4,19,0.01
2012-12-14,47.8,39.1,30.5,33.0,29.9,26.0,84,70,56,30.19,30.04,8,2,12,0.00
2012-12-15,50.1,44.3,38.4,49.0,39.0,31.0,95,82,67,30.04,29.57,14,5,19,0.13
2012-12-16,50.9,46.4,39.4,49.0,43.4,36.0,95,89,85,29.65,29.53,12,5,18,0.13
2012-12-17,39.5,38.1,36.7,36.0,34.6,34.0,90,87,83,29.68,29.57,9,2,11,0.00
2012-12-18,39.2,36.0,31.4,36.0,33.1,30.0,94,89,84,29.76,29.60,13,3,17,0.01
2012-12-19,41.5,39.4,36.6,37.0,36.4,34.0,93,88,83,30.00,29.67,8,3,16,0.01
2012-12-20,51.2,41.1,33.0,48.0,38.6,32.0,95,90,76,29.86,29.03,21,9,28,0.87
2012-12-21,33.4,31.4,29.4,32.0,29.0,26.0,96,90,86,30.06,29.19,22,11,34,0.02
2012-12-22,29.6,25.4,21.8,26.0,21.5,19.0,90,85,71,30.17,29.97,11,4,20,0.02
2012-12-23,34.6,26.4,18.2,29.0,22.9,16.0,93,86,78,29.99,29.88,7,1,10,0.05
2012-12-24,32.3,29.0,25.2,29.0,25.6,22.0,90,87,83,30.00,29.77,7,2,10,0.05
2012-12-25,32.3,28.3,22.3,26.0,23.4,20.0,92,82,73,30.25,30.00,12,3,19,0.01
2012-12-26,28.9,27.5,25.6,27.0,24.6,21.0,95,89,78,30.16,29.83,16,8,27,0.01
2012-12-27,34.1,28.6,25.1,28.0,24.6,22.0,90,85,77,30.12,29.98,8,2,14,0.02
2012-12-28,30.6,29.1,28.1,27.0,26.2,26.0,93,89,84,30.10,29.84,10,2,11,0.02
2012-12-29,31.5,28.0,24.6,30.0,25.7,21.0,94,90,85,30.14,29.79,13,4,18,0.02
2012-12-30,28.1,22.6,14.9,21.0,18.3,13.0,90,83,75,30.35,30.14,11,5,17,0.00
2012-12-31,34.4,29.9,25.2,30.0,25.6,20.0,95,84,73,30.17,29.97,17,6,20,0.01